Date String (YYYY-MM-DD hh:mm:ss) UTC,Instrument flags,Ambient pressure (hPa),Sample flow (lpm),Bypass flow (lpm),Sample temperature (°C),Ambient temperature (°C),ASC tube jacket temperature (°C),LED temperature (°C),Box temperature (°C),Sample RH (%),Span deviation,Mass concentration (μg/m³),Mass concentration (μg/m³),Mass concentration (μg/m³)
DateTimeUTC,F1_M11,P_M11,Q1_M11,Q2_M11,T1_M11,T2_M11,T3_M11,T4_M11,T5_M11,U1_M11,ZSPAN_M11,X0_M11,X2_M11,X1_M11
2022-02-11 13:00:00,,0825.3,4.99,0.00,21.8,21.7,00.0,30.9,23.6,15.4,0000.0,0005.16,0002.12,0001.71
2022-02-11 13:01:00,,0825.3,5.00,0.00,21.8,21.5,00.0,30.8,23.4,15.4,0000.0,0004.30,0002.16,0001.72
2022-02-11 13:02:00,,0825.4,4.99,0.00,21.7,21.3,00.0,30.8,23.3,15.5,0000.0,0004.52,0002.22,0001.74
2022-02-11 13:03:00,,0825.3,5.01,0.00,21.7,21.1,00.0,30.8,23.3,15.6,0000.0,0005.68,0002.25,0001.73
2022-02-11 13:04:00,,0825.3,4.98,0.00,21.6,20.9,00.0,30.8,23.2,15.7,0000.0,0006.02,0002.25,0001.72
2022-02-11 13:05:00,,0825.3,5.00,0.00,21.5,20.7,00.0,30.8,23.1,15.7,0000.0,0006.21,0002.26,0001.71
2022-02-11 13:06:00,,0825.3,5.00,0.00,21.5,20.6,00.0,30.7,23.0,15.8,0000.0,0006.87,0002.32,0001.71
2022-02-11 13:07:00,,0825.3,4.98,0.00,21.4,20.6,00.0,30.7,23.0,15.8,0000.0,0007.04,0002.34,0001.72
2022-02-11 13:08:00,,0825.4,5.01,0.00,21.4,20.6,00.0,30.7,23.0,15.8,0000.0,0007.24,0002.41,0001.72
2022-02-11 13:09:00,,0825.4,4.99,0.00,21.4,20.6,00.0,30.7,23.0,15.8,0000.0,0007.29,0002.44,0001.72
2022-02-11 13:10:00,,0825.4,5.02,0.00,21.4,20.6,00.0,30.6,23.0,15.8,0000.0,0007.37,0002.43,0001.71
2022-02-11 13:11:00,,0825.5,4.99,0.00,21.4,20.6,00.0,30.6,23.0,15.8,0000.0,0007.20,0002.36,0001.70
2022-02-11 13:12:00,,0825.6,4.99,0.00,21.3,20.6,00.0,30.6,22.9,15.8,0000.0,0006.97,0002.31,0001.69
2022-02-11 13:13:00,,0825.5,5.01,0.00,21.3,20.5,00.0,30.6,22.9,15.9,0000.0,0006.78,0002.27,0001.68
2022-02-11 13:14:00,,0825.5,4.99,0.00,21.3,20.5,00.0,30.5,22.8,16.0,0000.0,0005.49,0002.22,0001.67
2022-02-11 13:15:00,,0825.5,5.02,0.00,21.2,20.3,00.0,30.5,22.8,16.1,0000.0,0004.33,0002.23,0001.68
2022-02-11 13:16:00,,0825.6,4.99,0.00,21.2,20.3,00.0,30.5,22.7,16.1,0000.0,0004.16,0002.22,0001.67
2022-02-11 13:17:00,,0825.6,4.99,0.00,21.2,21.0,00.0,30.5,22.9,16.1,0000.0,0003.43,0002.16,0001.67
2022-02-11 13:18:00,,0825.6,5.01,0.00,21.4,21.9,00.0,30.5,23.3,16.0,0000.0,0003.29,0002.11,0001.65
2022-02-11 13:19:00,,0825.7,4.99,0.00,21.6,22.7,00.0,30.6,23.6,15.8,0000.0,0003.22,0002.04,0001.63
2022-02-11 13:20:00,,0825.7,5.00,0.00,21.7,22.8,00.0,30.6,23.8,15.7,0000.0,0003.30,0002.02,0001.63
2022-02-11 13:21:00,,0825.7,5.00,0.00,21.7,22.4,00.0,30.6,23.6,15.7,0000.0,0004.46,0002.02,0001.62
2022-02-11 13:22:00,,0825.7,5.00,0.00,21.7,22.0,00.0,30.6,23.5,15.7,0000.0,0004.58,0002.05,0001.62
2022-02-11 13:23:00,,0825.7,4.99,0.00,21.7,21.8,00.0,30.6,23.4,15.8,0000.0,0004.62,0002.06,0001.60
2022-02-11 13:24:00,,0825.8,5.02,0.00,21.6,21.5,00.0,30.6,23.3,15.8,0000.0,0004.61,0002.02,0001.58
2022-02-11 13:25:00,,0825.8,4.99,0.00,21.6,21.3,00.0,30.6,23.2,15.8,0000.0,0004.61,0002.00,0001.55
2022-02-11 13:26:00,,0825.9,5.01,0.00,21.5,21.1,00.0,30.6,23.1,15.9,0000.0,0005.43,0001.97,0001.54
2022-02-11 13:27:00,,0825.9,4.99,0.00,21.5,20.9,00.0,30.6,23.1,15.9,0000.0,0005.65,0001.94,0001.52
2022-02-11 13:28:00,,0825.9,5.01,0.00,21.4,20.8,00.0,30.6,23.0,15.9,0000.0,0006.42,0001.91,0001.49
2022-02-11 13:29:00,,0825.9,5.00,0.00,21.4,20.6,00.0,30.5,22.9,15.9,0000.0,0006.71,0001.89,0001.47
2022-02-11 13:30:00,,0826.0,4.98,0.00,21.3,20.5,00.0,30.5,22.9,16.0,0000.0,0007.49,0001.88,0001.46
2022-02-11 13:31:00,,0826.0,5.02,0.00,21.3,20.5,00.0,30.5,22.8,16.0,0000.0,0007.35,0001.83,0001.44
2022-02-11 13:32:00,,0826.0,4.99,0.00,21.2,20.4,00.0,30.5,22.8,16.0,0000.0,0006.05,0001.78,0001.43
2022-02-11 13:33:00,,0826.0,5.01,0.00,21.2,20.2,00.0,30.4,22.7,16.1,0000.0,0005.98,0001.75,0001.41
2022-02-11 13:34:00,,0826.0,5.00,0.00,21.1,20.1,00.0,30.4,22.6,16.1,0000.0,0005.92,0001.72,0001.39
2022-02-11 13:35:00,,0826.1,5.00,0.00,21.1,20.1,00.0,30.4,22.6,16.1,0000.0,0005.89,0001.71,0001.38
2022-02-11 13:36:00,,0826.0,5.01,0.00,21.0,20.0,00.0,30.3,22.5,16.2,0000.0,0005.94,0001.72,0001.38
2022-02-11 13:37:00,,0826.1,4.99,0.00,21.0,20.2,00.0,30.3,22.5,16.2,0000.0,0005.19,0001.70,0001.36
2022-02-11 13:38:00,,0826.2,5.00,0.00,21.1,21.0,00.0,30.3,22.8,16.1,0000.0,0004.90,0001.65,0001.33
2022-02-11 13:39:00,,0826.1,5.02,0.00,21.2,21.9,00.0,30.4,23.2,16.0,0000.0,0004.09,0001.62,0001.31
2022-02-11 13:40:00,,0826.2,4.99,0.00,21.4,22.3,00.0,30.4,23.4,15.8,0000.0,0003.70,0001.63,0001.30
2022-02-11 13:41:00,,0826.2,5.01,0.00,21.4,21.9,00.0,30.4,23.2,15.8,0000.0,0002.72,0001.62,0001.28
2022-02-11 13:42:00,,0826.1,5.00,0.00,21.4,21.6,00.0,30.4,23.1,15.8,0000.0,0002.76,0001.66,0001.27
2022-02-11 13:43:00,,0826.1,4.99,0.00,21.3,21.3,00.0,30.4,23.0,15.9,0000.0,0002.97,0001.68,0001.26
2022-02-11 13:44:00,,0826.1,5.01,0.00,21.3,21.0,00.0,30.4,22.9,15.9,0000.0,0002.93,0001.67,0001.26
2022-02-11 13:45:00,,0826.1,5.00,0.00,21.2,20.7,00.0,30.3,22.8,16.0,0000.0,0002.87,0001.63,0001.25
2022-02-11 13:46:00,,0826.1,5.00,0.00,21.2,20.4,00.0,30.3,22.7,16.0,0000.0,0002.97,0001.61,0001.24
2022-02-11 13:47:00,,0826.2,5.02,0.00,21.1,20.3,00.0,30.3,22.6,16.1,0000.0,0004.09,0001.62,0001.23
2022-02-11 13:48:00,,0826.1,4.99,0.00,21.0,20.1,00.0,30.3,22.5,16.1,0000.0,0004.75,0001.63,0001.23
2022-02-11 13:49:00,,0826.2,5.01,0.00,21.0,20.1,00.0,30.2,22.5,16.1,0000.0,0004.66,0001.64,0001.23
2022-02-11 13:50:00,,0826.1,5.00,0.00,20.9,20.1,00.0,30.2,22.4,16.2,0000.0,0004.80,0001.65,0001.23
2022-02-11 13:51:00,,0826.2,5.00,0.00,20.9,20.0,00.0,30.2,22.4,16.2,0000.0,0006.58,0001.68,0001.23
2022-02-11 13:52:00,,0826.3,5.00,0.00,20.9,20.1,00.0,30.1,22.4,16.3,0000.0,0006.53,0001.65,0001.23
2022-02-11 13:53:00,,0826.2,5.01,0.00,21.0,21.1,00.0,30.2,22.7,16.2,0000.0,0006.51,0001.63,0001.22
2022-02-11 13:54:00,,0826.3,5.00,0.00,21.2,22.1,00.0,30.2,23.1,16.0,0000.0,0006.30,0001.61,0001.21
2022-02-11 13:55:00,,0826.3,5.01,0.00,21.4,22.8,00.0,30.3,23.4,15.8,0000.0,0006.52,0001.63,0001.20
2022-02-11 13:56:00,,0826.3,4.99,0.00,21.5,22.6,00.0,30.3,23.4,15.7,0000.0,0006.51,0001.63,0001.21
2022-02-11 13:57:00,,0826.3,5.00,0.00,21.5,22.2,00.0,30.3,23.3,15.7,0000.0,0006.39,0001.64,0001.22
2022-02-11 13:58:00,,0826.4,5.00,0.00,21.4,21.8,00.0,30.3,23.2,15.7,0000.0,0005.27,0001.62,0001.23
2022-02-11 13:59:00,,0826.4,5.01,0.00,21.4,21.4,00.0,30.3,23.1,15.7,0000.0,0004.47,0001.58,0001.23
